User: anonymous   Login
Location: New Greens
(51.7702°N, 0.3379°W)
Time: 11:10:05
(UTC+00:00)
Language:

Envisat - Orbit

View from above orbital plane
View from above orbital plane
View from above satellite
View from above satellite

Ground track
Ground track

The orbit data is extracted from the following two-line orbital elements,

1 27386U 02009A   19107.94781042 +.00000006 +00000-0 +15548-4 0  9993
2 27386 098.1547 132.1146 0001426 090.6091 331.0636 14.37946051897251
Epoch (UTC): 17 April 2019 22:44:50
Eccentricity: 0.0001426
inclination: 98.1547°
perigee height: 764 km
apogee height: 766 km
right ascension of ascending node: 132.1146°
argument of perigee: 90.6091°
revolutions per day: 14.37946051
mean anomaly at epoch: 331.0636°
orbit number at epoch: 89725

The dashed part of the orbit path shows where the satellite is in the earth's shadow,  

DLR